NM5I Weather Reports


Display with metric or nautical units.
time (UTC)temp
F
wind
direction
speed
MPH
gust
MPH
rain 1hr
in
rain 24hr
in
rain mn
in
humidity
%
barometer
mb
20260510130204 68 92 1.0 8.0 0.00 0.00 0.00 86 1014.3
20260510125126 67 112 1.0 5.0 0.00 0.00 0.00 87 1014.1
20260510124208 67 70 1.0 4.0 0.00 0.00 0.00 88 1014.3
20260510123129 67 44 3.0 8.0 0.00 0.00 0.00 88 1014.3
20260510122201 67 28 3.0 9.0 0.00 0.00 0.00 88 1014.4
20260510121233 67 84 4.0 13.0 0.00 0.00 0.00 87 1014.6
20260510120130 67 78 4.0 12.0 0.00 0.00 0.00 88 1014.9
20260510115213 68 65 5.0 12.0 0.00 0.00 0.00 87 1015.4
20260510114129 69 38 4.0 11.0 0.00 0.00 0.00 86 1016.0
20260510113200 70 355 5.0 18.0 0.00 0.00 0.00 85 1016.0
20260510112131 70 349 5.0 11.0 0.00 0.00 0.00 91 1016.0
20260510111158 69 5 1.0 5.0 0.00 0.00 0.00 93 1015.3
20260510110917 69 333 0.0 5.0 0.00 0.00 0.00 93 1015.2
20260510110218 69 330 2.0 5.0 0.00 0.00 0.00 94 1014.9
20260510105148 69 46 2.0 5.0 0.00 0.00 0.00 94 1014.6
20260510104213 69 330 1.0 6.0 0.00 0.00 0.00 94 1014.8
20260510103216 69 58 1.0 4.0 0.00 0.00 0.00 94 1014.3
20260510102138 69 336 3.0 7.0 0.00 0.00 0.00 94 1014.0
20260510101217 69 88 1.0 3.0 0.00 0.00 0.00 94 1013.5
20260510100229 69 90 1.0 2.0 0.00 0.00 0.00 94 1012.9
20260510095152 69 89 0.0 2.0 0.00 0.00 0.00 94 1013.0
20260510094129 69 92 0.0 4.0 0.00 0.00 0.00 94 1013.0
20260510093200 69 74 1.0 4.0 0.00 0.00 0.00 94 1012.8
20260510092133 69 92 1.0 4.0 0.00 0.00 0.00 94 1012.4
20260510091210 69 103 0.0 3.0 0.00 0.00 0.00 94 1012.2
20260510090241 69 215 0.0 2.0 0.00 0.00 0.00 94 1011.8
20260510084158 69 214 0.0 0.0 0.00 0.00 0.00 93 1011.7
20260510083125 69 214 0.0 2.0 0.00 0.00 0.00 93 1011.9
20260510082206 69 214 0.0 1.0 0.00 0.00 0.00 93 1011.9
20260510081136 70 214 0.0 1.0 0.00 0.00 0.00 92 1011.4
20260510080138 70 214 0.0 2.0 0.00 0.00 0.00 92 1010.9
20260510075153 70 213 0.0 2.0 0.00 0.00 0.00 91 1010.4
20260510074238 70 213 0.0 4.0 0.00 0.00 0.00 91 1010.1
20260510073139 70 188 1.0 4.0 0.00 0.00 0.00 91 1009.9
20260510072220 70 152 2.0 6.0 0.00 0.00 0.00 91 1009.9
20260510071204 70 92 1.0 7.0 0.00 0.00 0.00 90 1009.8
20260510070144 71 151 1.0 3.0 0.00 0.00 0.00 90 1010.0
20260510065131 71 177 1.0 4.0 0.00 0.00 0.00 90 1010.5
20260510064149 71 136 1.0 5.0 0.00 0.00 0.00 89 1010.6
20260510063137 72 169 0.0 2.0 0.00 0.00 0.00 88 1010.8
20260510062125 72 173 0.0 4.0 0.00 0.00 0.00 88 1010.7
20260510061133 72 116 1.0 4.0 0.00 0.00 0.00 87 1010.6
20260510060131 73 118 1.0 4.0 0.00 0.00 0.00 87 1010.4
20260510055140 73 159 1.0 6.0 0.00 0.00 0.00 87 1010.4
20260510054128 73 184 2.0 6.0 0.00 0.00 0.00 87 1010.3
20260510053201 74 130 3.0 7.0 0.00 0.00 0.00 87 1010.2
20260510052148 74 184 3.0 8.0 0.00 0.00 0.00 87 1010.2
20260510051142 74 150 3.0 6.0 0.00 0.00 0.00 87 1010.1
20260510050839 74 153 3.0 7.0 0.00 0.00 0.00 87 1010.0
20260510050141 75 115 2.0 7.0 0.00 0.00 0.00 87 1010.1
20260510045208 75 128 3.0 10.0 0.00 0.00 0.00 87 1010.0
20260510044240 75 190 3.0 10.0 0.00 0.00 0.00 87 1009.9
20260510043147 76 154 3.0 10.0 0.00 0.00 0.00 88 1010.0
20260510042214 76 143 1.0 11.0 0.00 0.00 0.00 88 1010.3
20260510041146 76 139 2.0 12.0 0.00 0.00 0.00 88 1010.4
20260510040218 77 171 2.0 6.0 0.00 0.00 0.00 88 1010.4
20260510035137 77 165 1.0 8.0 0.00 0.00 0.00 88 1010.3
20260510034216 77 66 2.0 7.0 0.00 0.00 0.00 87 1010.3
20260510033134 78 53 3.0 6.0 0.00 0.00 0.00 87 1010.2
20260510032210 78 180 1.0 6.0 0.00 0.00 0.00 86 1010.0
20260510031239 78 53 2.0 7.0 0.00 0.00 0.00 86 1009.8
20260510030217 78 89 1.0 9.0 0.00 0.00 0.00 85 1009.6
20260510025143 79 327 1.0 3.0 0.00 0.00 0.00 84 1009.5
20260510024215 79 70 2.0 5.0 0.00 0.00 0.00 83 1009.3
20260510023141 79 37 1.0 5.0 0.00 0.00 0.00 82 1009.2
20260510022217 80 48 2.0 5.0 0.00 0.00 0.00 81 1009.2
20260510021140 80 51 2.0 4.0 0.00 0.00 0.00 80 1009.1
20260510020206 81 52 2.0 5.0 0.00 0.00 0.00 79 1009.0
20260510015241 81 22 1.0 3.0 0.00 0.00 0.00 78 1008.9
20260510014145 81 5 1.0 6.0 0.00 0.00 0.00 77 1008.7
20260510013124 82 360 1.0 3.0 0.00 0.00 0.00 75 1008.5
20260510012154 82 130 0.0 2.0 0.00 0.00 0.00 73 1008.3
20260510011134 83 135 0.0 1.0 0.00 0.00 0.00 72 1008.2
20260510010223 83 135 0.0 1.0 0.00 0.00 0.00 71 1008.1
20260510005128 84 135 0.0 1.0 0.00 0.00 0.00 71 1008.0
20260510004148 84 135 0.0 2.0 0.00 0.00 0.00 71 1007.8
20260510003207 84 134 0.0 1.0 0.00 0.00 0.00 71 1007.8
20260510002133 84 134 1.0 2.0 0.00 0.00 0.00 70 1007.7
20260510001129 85 123 1.0 2.0 0.00 0.00 0.00 69 1007.6
20260510000125 85 29 1.0 2.0 0.00 0.00 0.00 70 1007.6
20260509235132 84 28 0.0 3.0 0.00 0.00 0.00 70 1007.5
20260509234125 85 32 1.0 4.0 0.00 0.00 0.00 68 1007.4
20260509233141 85 43 2.0 4.0 0.00 0.00 0.00 68 1007.2
20260509232211 86 144 1.0 6.0 0.00 0.00 0.00 67 1007.1
20260509231139 87 53 2.0 5.0 0.00 0.00 0.00 65 1007.0
20260509230853 87 50 3.0 5.0 0.00 0.00 0.00 63 1007.0
20260509224156 90 257 3.0 8.0 0.00 0.00 0.00 55 1007.1
20260509223140 90 266 4.0 8.0 0.00 0.00 0.00 55 1007.1
20260509222204 90 188 4.0 7.0 0.00 0.00 0.00 55 1007.0
20260509221146 88 157 3.0 7.0 0.00 0.00 0.00 57 1007.0
20260509220136 88 217 1.0 7.0 0.00 0.00 0.00 58 1007.1
20260509215214 88 157 1.0 6.0 0.00 0.00 0.00 62 1007.1
20260509214126 88 157 3.0 8.0 0.00 0.00 0.00 59 1007.3
20260509211149 88 228 1.0 7.0 0.00 0.00 0.00 59 1007.7
20260509210130 89 271 2.0 7.0 0.00 0.00 0.00 59 1007.7
20260509205155 89 259 3.0 7.0 0.00 0.00 0.00 59 1007.9
20260509204219 89 61 3.0 6.0 0.00 0.00 0.00 60 1007.9
20260509201148 88 215 2.0 9.0 0.00 0.00 0.00 62 1008.3
20260509200148 88 215 1.0 5.0 0.00 0.00 0.00 61 1008.3
20260509195223 88 155 1.0 9.0 0.00 0.00 0.00 61 1008.5
20260509194200 87 250 4.0 9.0 0.00 0.00 0.00 63 1008.6
20260509193128 86 225 4.0 8.0 0.00 0.00 0.00 65 1008.8
20260509192208 85 36 2.0 8.0 0.00 0.00 0.00 66 1008.9
20260509191237 87 153 3.0 7.0 0.00 0.00 0.00 64 1008.9
20260509190206 87 167 4.0 8.0 0.00 0.00 0.00 65 1009.0
20260509185144 87 254 1.0 7.0 0.00 0.00 0.00 64 1009.0
20260509184216 86 183 2.0 8.0 0.00 0.00 0.00 65 1009.1
20260509182150 85 248 2.0 6.0 0.00 0.00 0.00 70 1009.4
20260509181127 84 245 3.0 6.0 0.00 0.00 0.00 69 1009.5
20260509180140 84 226 2.0 8.0 0.00 0.00 0.00 71 1009.6
20260509175219 82 163 2.0 8.0 0.00 0.00 0.00 75 1009.8
20260509174140 82 229 4.0 11.0 0.00 0.00 0.00 76 1010.0
20260509173219 81 179 4.0 8.0 0.00 0.00 0.00 77 1010.0
20260509172221 82 172 3.0 10.0 0.00 0.00 0.00 76 1010.1
20260509170830 81 143 4.0 9.0 0.00 0.00 0.00 77 1009.9
20260509170142 82 229 3.0 7.0 0.00 0.00 0.00 77 1010.0
20260509165223 81 259 3.0 8.0 0.00 0.00 0.00 77 1010.1
20260509164150 80 249 3.0 9.0 0.00 0.00 0.00 79 1010.1
20260509163126 81 207 4.0 8.0 0.00 0.00 0.00 78 1010.0
20260509161200 79 223 1.0 4.0 0.00 0.00 0.00 81 1009.9
20260509160153 78 184 1.0 5.0 0.00 0.00 0.00 85 1009.9
20260509155218 77 146 2.0 6.0 0.00 0.00 0.00 87 1010.0
20260509154132 77 222 3.0 6.0 0.00 0.00 0.00 87 1009.8
20260509153212 76 232 3.0 6.0 0.00 0.00 0.00 91 1009.9
20260509152132 74 203 2.0 6.0 0.00 0.00 0.00 93 1009.9
20260509151211 74 188 1.0 5.0 0.00 0.00 0.00 95 1009.9
20260509150207 74 250 1.0 2.0 0.00 0.00 0.00 95 1010.1
20260509145137 74 250 0.0 3.0 0.00 0.00 0.00 95 1010.2
20260509144158 73 250 0.0 2.0 0.00 0.00 0.00 95 1010.3
20260509143218 73 250 1.0 2.0 0.00 0.00 0.00 94 1010.4
20260509142156 73 250 1.0 5.0 0.00 0.00 0.00 94 1010.4
20260509141214 73 241 2.0 4.0 0.00 0.00 0.00 94 1010.4
20260509140918 73 192 1.0 5.0 0.00 0.00 0.00 94 1010.3
20260509135159 73 195 2.0 5.0 0.00 0.00 0.00 94 1010.2
20260509134229 73 213 1.0 4.0 0.00 0.00 0.00 95 1010.2
20260509133143 73 215 1.0 4.0 0.00 0.00 0.00 96 1010.1
20260509132212 72 215 2.0 4.0 0.00 0.00 0.00 96 1010.1
20260509131151 72 217 2.0 5.0 0.00 0.00 0.00 96 1010.2